Location: Bruderhein
(53.8035°N, 112.9265°W)
Time: 13:18:47
(UTC+00:00)

Envisat - Visible Passes

Search period start: 23 May 2024 00:00
Search period end: 02 June 2024 00:00
Orbit: 762 x 764 km, 98.3° (Epoch: 22 May)

Date Brightness Start Highest point End Pass type
(mag) Time Alt. Az. Time Alt. Az. Time Alt. Az.
23 May 5.1 09:53:41 10° NE 09:57:46 24° E 10:01:47 10° SE visible
24 May 5.6 09:17:52 10° ENE 09:19:52 12° E 09:21:50 10° ESE visible
25 May 4.4 10:17:35 10° NNE 10:22:16 35° E 10:26:54 10° SSE visible
26 May 5.3 09:40:55 10° NE 09:44:30 19° E 09:48:04 10° SE visible
28 May 4.8 10:04:39 10° NNE 10:09:03 29° E 10:13:24 10° SSE visible
29 May 5.5 09:28:18 10° NE 09:31:12 15° E 09:34:06 10° ESE visible
31 May 5.1 09:51:47 10° NE 09:55:48 23° E 09:59:47 10° SE visible
01 Jun 5.6 09:16:01 10° ENE 09:17:53 12° E 09:19:44 10° ESE visible
